Home   Weather   Hyderabad   Past weeks

Flag for India Past Weather in Hyderabad, Telangana, India — Yesterday and Last 2 Weeks

Now
84 °F

Haze.


Feels Like: 85 °F
Forecast: 72 / 97 °F
Wind: 3 mph from North

Location: Hyderabad Airport

Current Time: Feb 23, 2017 at 10:26:44 am

Latest Report: Feb 23, 2017 at 9:30 am


Visibility: 2 mi

Pressure: 30.07 "Hg (28.39 "Hg at 507m altitude)

Humidity: 48%

Dew Point: 63 °F

Location of HyderabadLocation

Past Weather in Hyderabad — Graph

°F

Hyderabad Temperature Yesterday

Maximum temperature yesterday: 100 °F (at 3:00 pm)
Minimum temperature yesterday: 63 °F (at 6:30 am)
Average temperature yesterday: 88 °F

High & Low Weather Summary for the Past Weeks

 TemperatureHumidityPressure
High102 °F (Feb 21, 3:00 pm)83% (Feb 14, 7:00 am)30.24 "Hg (Feb 14, 7:00 am)
Low57 °F (Feb 20, 6:30 am)10% (Feb 20, 2:30 pm)29.83 "Hg (Feb 20, 4:00 pm)
Average81 °F40%30.05 "Hg
* Reported Feb 8 8:30 am — Feb 23 9:00 am, Hyderabad, Weather by CustomWeather, © 2017

Note: Actual official high and low records may vary slightly from our data, if they occured in-between our weather recording intervals... More about our weather records

Advertising

Hyderabad Weather History for the Previous 24 Hours

Scroll right to see more
 ConditionsComfort  
Time TempWeatherWind HumidityBarometerVisibility
9:00 am
Thu, Feb 23
82 °FHaze.9 mph51%30.07 "Hg2 mi
8:30 am79 °FHaze.5 mph58%30.07 "Hg2 mi
8:00 am73 °FHaze.No wind61%30.04 "Hg2 mi
7:30 am68 °FHaze.2 mph73%30.04 "Hg2 mi
7:00 am64 °FHaze.No wind78%30.01 "Hg2 mi
6:30 am64 °FHaze.No wind73%30.01 "Hg2 mi
6:00 am64 °FHaze.No wind73%29.98 "Hg2 mi
9:00 pm
Wed, Feb 22
77 °FClear.No wind34%30.01 "Hg4 mi
8:30 pm81 °FClear.No wind26%29.98 "Hg4 mi
8:00 pm82 °FClear.No wind26%29.98 "Hg4 mi
7:30 pm84 °FClear.3 mph25%29.95 "Hg4 mi
7:00 pm88 °FClear.2 mph21%29.95 "Hg4 mi
6:30 pm90 °FClear.2 mph18%29.92 "Hg4 mi
6:00 pm93 °FClear.5 mph16%29.92 "Hg4 mi
5:30 pm97 °FClear.7 mph16%29.92 "Hg4 mi
5:00 pm99 °FClear.6 mph16%29.89 "Hg4 mi
4:30 pm100 °FPassing clouds.3 mph14%29.89 "Hg4 mi
4:00 pm100 °FPassing clouds.3 mph14%29.89 "Hg4 mi
3:30 pm100 °FPassing clouds.3 mph14%29.89 "Hg4 mi
3:00 pm100 °FPassing clouds.3 mph16%29.92 "Hg4 mi
2:30 pm99 °FClear.3 mph19%29.92 "Hg4 mi
2:00 pm99 °FClear.3 mph21%29.92 "Hg4 mi
1:30 pm97 °FClear.5 mph23%29.95 "Hg4 mi
1:00 pm97 °FClear.5 mph25%29.98 "Hg4 mi
12:30 pm95 °FClear.2 mph26%29.98 "Hg4 mi
12:00 pm93 °FClear.3 mph30%30.01 "Hg4 mi
10:30 am86 °FHaze.3 mph35%30.04 "Hg3 mi
Weather by CustomWeather, © 2017

See weather overviewHow to use our weather pages